Change the Weather History Date:

Thursday, October 10, 2013

  Actual Average Record
Temperature  
Mean Temperature 66 °F -  
Max Temperature 77 °F 79 °F 80 °F (2012)
Min Temperature 55 °F 62 °F 51 °F (1996)
Cooling Degree Days 1    
Growing Degree Days 16 (Base 50)    
Moisture  
Dew Point 58 °F    
Average Humidity 68    
Maximum Humidity 94    
Minimum Humidity 46    
Precipitation  
Precipitation 0.01 in 0.14 in - ()
Sea Level Pressure  
Sea Level Pressure 30.02 in    
Wind  
Wind Speed 10 mph ()    
Max Wind Speed 25 mph    
Max Gust Speed 31 mph    
Visibility 10.5 miles    
Events      
Averages and records for this station are not official NWS values.
T = Trace of Precipitation, MM = Missing Value Source: Averaged Metar Reports

Daily Weather History Graph

Daily Weather History Graph

Search for Another Location

Airport or City:

Trip Planner

Search our weather history database for the weather conditions in past years. The results will help you decide how hot, cold, wet, or windy it might be!

Date:

Astronomy

Oct. 10, 2013 Rise Set
Actual Time 5:17 AM AEST 5:52 PM AEST
Civil Twilight 4:53 AM AEST 6:15 PM AEST
Nautical Twilight 4:26 AM AEST 6:43 PM AEST
Astronomical Twilight 3:57 AM AEST 7:11 PM AEST
Moon 9:10 AM AEST (10/10) 11:05 PM AEST (10/10)
Length of Visible Light 13h 22m
Length of Day
12h 35m
Waxing Crescent, 29% of the Moon is Illuminated
Oct 10
Waxing Crescent
Oct 12
First Quarter
Oct 19
Full
Oct 27
Last Quarter
Nov 3
New

Hourly Weather History & Observations

Time (AEST) Temp. Dew Point Humidity Pressure Visibility Wind Dir Wind Speed Gust Speed Precip Events Conditions
12:00 AM 63 °F 55 °F 69% 30.13 in 16 mi WNW 6.9 mph - -   Partly Cloudy
12:00 AM 62.6 °F 55.4 °F 77% 30.12 in 6.2 mi WNW 6.9 mph - N/A   Partly Cloudy
12:30 AM 60.8 °F 55.4 °F 82% 30.12 in 6.2 mi West 4.6 mph - N/A   Partly Cloudy
1:00 AM 62 °F 55 °F 73% 30.13 in - Calm Calm - -  
1:00 AM 60.8 °F 55.4 °F 82% 30.12 in 6.2 mi Calm Calm - N/A   Partly Cloudy
1:30 AM 60.8 °F 55.4 °F 82% 30.12 in - West 2.3 mph - N/A   Clear
2:00 AM 59.0 °F 55.4 °F 88% 30.09 in - Calm Calm - N/A   Clear
2:30 AM 59.0 °F 55.4 °F 88% 30.09 in - Calm Calm - N/A   Clear
3:00 AM 58 °F 55 °F 85% 30.12 in 16 mi West 3.5 mph - -   Partly Cloudy
3:00 AM 57.2 °F 55.4 °F 94% 30.09 in - West 3.5 mph - N/A   Clear
3:30 AM 57.2 °F 53.6 °F 88% 30.09 in - Calm Calm - N/A   Clear
4:00 AM 57 °F 54 °F 85% 30.11 in - NW 5.8 mph - -  
4:00 AM 57.2 °F 53.6 °F 88% 30.09 in 6.2 mi NW 5.8 mph - N/A   Partly Cloudy
4:30 AM 57.2 °F 53.6 °F 88% 30.09 in 6.2 mi West 3.5 mph - N/A   Partly Cloudy
5:00 AM 57.2 °F 53.6 °F 88% 30.09 in 6.2 mi West 4.6 mph - N/A   Partly Cloudy
5:30 AM 57.2 °F 53.6 °F 88% 30.09 in 6.2 mi West 5.8 mph - N/A   Partly Cloudy
6:00 AM 59 °F 55 °F 82% 30.13 in 19 mi WSW 6.9 mph - -   Partly Cloudy
6:00 AM 59.0 °F 55.4 °F 88% 30.12 in 6.2 mi WSW 6.9 mph - N/A   Partly Cloudy
6:30 AM 62.6 °F 55.4 °F 77% 30.12 in 6.2 mi West 6.9 mph - N/A   Partly Cloudy
7:00 AM 65 °F 55 °F 63% 30.14 in - West 6.9 mph - -  
7:00 AM 66.2 °F 55.4 °F 68% 30.12 in 6.2 mi West 6.9 mph - N/A   Partly Cloudy
7:30 AM 68.0 °F 55.4 °F 64% 30.12 in 6.2 mi WNW 6.9 mph - N/A   Partly Cloudy
8:00 AM 69.8 °F 55.4 °F 60% 30.12 in 6.2 mi NW 8.1 mph - N/A   Partly Cloudy
8:30 AM 71.6 °F 55.4 °F 57% 30.12 in - North 10.4 mph - N/A   Clear
9:00 AM 72 °F 56 °F 47% 30.13 in 19 mi North 10.4 mph - -   Partly Cloudy
9:00 AM 71.6 °F 55.4 °F 57% 30.12 in - North 10.4 mph - N/A   Clear
9:30 AM 73.4 °F 57.2 °F 57% 30.09 in - North 10.4 mph - N/A   Clear
10:00 AM 74 °F 57 °F 46% 30.10 in - North 11.5 mph - -  
10:00 AM 73.4 °F 57.2 °F 57% 30.09 in - North 11.5 mph - N/A   Clear
10:30 AM 75.2 °F 59.0 °F 57% 30.06 in - NNE 12.7 mph - N/A   Clear
11:00 AM 75.2 °F 55.4 °F 50% 30.06 in - NNE 13.8 mph - N/A   Clear
11:30 AM 77.0 °F 59.0 °F 54% 30.04 in - NNE 17.3 mph - N/A   Clear
12:00 PM 76 °F 60 °F 49% 30.03 in 19 mi NNE 18.4 mph - -   Partly Cloudy
12:00 PM 77.0 °F 60.8 °F 57% 30.01 in - NNE 18.4 mph - N/A   Clear
12:30 PM 77.0 °F 62.6 °F 61% 30.01 in - NNE 20.7 mph - N/A   Clear
1:00 PM 76 °F 61 °F 51% 30.00 in - NNE 21.9 mph - -  
1:00 PM 75.2 °F 60.8 °F 61% 29.98 in - NNE 21.9 mph - N/A   Clear
1:30 PM 75.2 °F 62.6 °F 65% 29.98 in - NNE 20.7 mph - N/A   Clear
2:00 PM 75.2 °F 62.6 °F 65% 29.95 in - NNE 24.2 mph - N/A   Clear
2:30 PM 77.0 °F 62.6 °F 61% 29.95 in - NNE 24.2 mph - N/A   Clear
3:00 PM 76 °F 62 °F 54% 29.93 in 19 mi NNE 24.2 mph - -   Partly Cloudy
3:00 PM 75.2 °F 62.6 °F 65% 29.92 in - NNE 24.2 mph - N/A   Clear
3:30 PM 77.0 °F 62.6 °F 61% 29.92 in - North 24.2 mph - N/A   Clear
4:00 PM 75 °F 63 °F 57% 29.91 in - North 25.3 mph - -  
4:00 PM 75.2 °F 62.6 °F 65% 29.89 in - North 25.3 mph - N/A   Clear
4:30 PM 73.4 °F 62.6 °F 69% 29.89 in - North 25.3 mph - N/A   Clear
5:00 PM 73.4 °F 62.6 °F 69% 29.89 in - North 25.3 mph - N/A   Clear
5:30 PM 71.6 °F 62.6 °F 73% 29.89 in - North 24.2 mph - N/A   Clear
6:00 PM 72 °F 63 °F 65% 29.91 in 12 mi North 24.2 mph - -   Haze
6:00 PM 71.6 °F 62.6 °F 73% 29.89 in - North 24.2 mph - N/A   Clear
6:30 PM 71.6 °F 62.6 °F 73% 29.89 in - North 23.0 mph - N/A   Clear
7:00 PM 72 °F 63 °F 66% 29.91 in - North 21.9 mph - -  
7:00 PM 71.6 °F 62.6 °F 73% 29.89 in - North 21.9 mph - N/A   Clear
7:30 PM 71.6 °F 62.6 °F 73% 29.92 in - North 21.9 mph - N/A   Clear
8:00 PM 71.6 °F 60.8 °F 69% 29.92 in - North 19.6 mph - N/A   Clear
8:30 PM 71.6 °F 59.0 °F 64% 29.92 in - North 18.4 mph - N/A   Clear
9:00 PM 71 °F 58 °F 55% 29.93 in 16 mi North 20.7 mph - -   Haze
9:00 PM 71.6 °F 59.0 °F 64% 29.92 in - North 20.7 mph - N/A   Clear
9:26 PM 71.6 °F 57.2 °F 60% 29.92 in - North 19.6 mph 31.1 mph N/A   Clear
9:30 PM 69.8 °F 57.2 °F 64% 29.92 in - North 19.6 mph - N/A   Clear
10:00 PM 70 °F 58 °F 58% 29.93 in - North 19.6 mph - -  
10:00 PM 69.8 °F 59.0 °F 68% 29.92 in - North 19.6 mph - N/A   Clear
10:30 PM 69.8 °F 57.2 °F 64% 29.92 in - North 18.4 mph - N/A   Clear
11:00 PM 69.8 °F 57.2 °F 64% 29.92 in - North 17.3 mph - N/A   Clear
11:30 PM 69.8 °F 55.4 °F 60% 29.92 in - North 17.3 mph - N/A   Clear